Wetterdaten: Mittwoch, 04.11.2015
Datum Zeit Auen-Temp. Temp gefhlt Luftfeuchte Luftdruck Regen Wind Richtung Richtung Taupunkt Windben
04.11.2015 00:00 7,9 C 7,9 C 75 % 1020,6 hPa 0,0 mm 2,1 km/h (1 Bft) S 180 3,7 C 4,4 km/h (1 Bft)
04.11.2015 00:05 8,7 C 8,6 C 76 % 1020,6 hPa 0,0 mm 4,4 km/h (1 Bft) S 180 4,7 C 6,2 km/h (2 Bft)
04.11.2015 00:10 9,0 C 9,0 C 74 % 1020,9 hPa 0,0 mm 4,9 km/h (1 Bft) SO 135 4,6 C 4,1 km/h (1 Bft)
04.11.2015 00:15 9,3 C 9,4 C 73 % 1020,9 hPa 0,0 mm 2,8 km/h (1 Bft) O-SO 112 4,7 C 0,0 km/h (0 Bft)
04.11.2015 00:20 9,1 C 9,4 C 71 % 1020,9 hPa 0,0 mm 0,8 km/h (0 Bft) S-SO 157 4,1 C 12,9 km/h (3 Bft)
04.11.2015 00:25 9,4 C 9,6 C 70 % 1020,9 hPa 0,0 mm 0,0 km/h (0 Bft) SO 135 4,2 C 0,0 km/h (0 Bft)
04.11.2015 00:30 9,7 C 9,7 C 70 % 1020,6 hPa 0,0 mm 0,3 km/h (0 Bft) S-SO 157 4,5 C 0,0 km/h (0 Bft)
04.11.2015 00:35 8,6 C 9,9 C 69 % 1020,6 hPa 0,0 mm 0,0 km/h (0 Bft) NO 45 3,2 C 0,0 km/h (0 Bft)
04.11.2015 00:40 8,1 C 9,4 C 71 % 1020,6 hPa 0,0 mm 1,0 km/h (0 Bft) SO 135 3,2 C 3,1 km/h (1 Bft)
04.11.2015 00:45 8,6 C 9,0 C 71 % 1020,6 hPa 0,0 mm 1,3 km/h (1 Bft) W-SW 247 3,6 C 3,4 km/h (1 Bft)
04.11.2015 00:50 8,9 C 9,4 C 70 % 1020,8 hPa 0,0 mm 0,8 km/h (0 Bft) S 180 3,7 C 0,0 km/h (0 Bft)
04.11.2015 00:55 10,2 C 10,2 C 69 % 1020,8 hPa 0,0 mm 1,0 km/h (0 Bft) W-SW 247 4,8 C 13,2 km/h (3 Bft)
04.11.2015 01:00 10,5 C 10,5 C 67 % 1020,8 hPa 0,0 mm 1,8 km/h (1 Bft) SO 135 4,6 C 4,1 km/h (1 Bft)
04.11.2015 01:05 10,7 C 11,1 C 64 % 1020,8 hPa 0,0 mm 4,4 km/h (1 Bft) SW 225 4,2 C 8,5 km/h (2 Bft)
04.11.2015 01:10 11,0 C 11,5 C 63 % 1020,9 hPa 0,0 mm 4,9 km/h (1 Bft) S-SO 157 4,2 C 3,1 km/h (1 Bft)
04.11.2015 01:15 11,1 C 11,6 C 61 % 1020,9 hPa 0,0 mm 3,6 km/h (1 Bft) SO 135 3,9 C 3,1 km/h (1 Bft)
04.11.2015 01:20 11,0 C 11,6 C 61 % 1020,9 hPa 0,0 mm 1,6 km/h (1 Bft) S-SO 157 3,8 C 0,0 km/h (0 Bft)
04.11.2015 01:25 10,8 C 11,4 C 62 % 1020,9 hPa 0,0 mm 1,6 km/h (1 Bft) S 180 3,8 C 4,9 km/h (1 Bft)
04.11.2015 01:30 10,8 C 11,3 C 62 % 1020,9 hPa 0,0 mm 1,8 km/h (1 Bft) S 180 3,8 C 0,0 km/h (0 Bft)
04.11.2015 01:35 10,9 C 11,3 C 61 % 1020,9 hPa 0,0 mm 3,1 km/h (1 Bft) S-SO 157 3,7 C 3,9 km/h (1 Bft)
04.11.2015 01:40 10,9 C 11,3 C 61 % 1020,9 hPa 0,0 mm 2,1 km/h (1 Bft) S-SO 157 3,7 C 0,0 km/h (0 Bft)
04.11.2015 01:45 11,1 C 11,3 C 59 % 1020,9 hPa 0,0 mm 2,3 km/h (1 Bft) S-SO 157 3,4 C 4,9 km/h (1 Bft)
04.11.2015 01:50 11,0 C 11,4 C 59 % 1020,9 hPa 0,0 mm 3,1 km/h (1 Bft) S-SO 157 3,3 C 3,4 km/h (1 Bft)
04.11.2015 01:55 10,1 C 11,2 C 61 % 1020,9 hPa 0,0 mm 1,8 km/h (1 Bft) SO 135 2,9 C 3,4 km/h (1 Bft)
04.11.2015 02:00 9,6 C 10,6 C 62 % 1020,9 hPa 0,0 mm 0,8 km/h (0 Bft) SO 135 2,7 C 0,0 km/h (0 Bft)
04.11.2015 02:05 9,5 C 9,7 C 63 % 1020,9 hPa 0,0 mm 1,0 km/h (0 Bft) S-SO 157 2,8 C 2,6 km/h (1 Bft)
04.11.2015 02:08 9,5 C 9,7 C 63 % 1020,9 hPa 0,0 mm 1,0 km/h (0 Bft) S-SO 157 2,8 C 2,6 km/h (1 Bft)
04.11.2015 02:10 10,2 C 10,1 C 62 % 1020,9 hPa 0,0 mm 1,8 km/h (1 Bft) W-SW 247 3,3 C 4,9 km/h (1 Bft)
04.11.2015 02:15 9,5 C 10,0 C 62 % 1020,9 hPa 0,0 mm 2,6 km/h (1 Bft) SW 225 2,6 C 4,7 km/h (1 Bft)
04.11.2015 02:20 9,9 C 10,0 C 61 % 1020,9 hPa 0,0 mm 3,1 km/h (1 Bft) S 180 2,7 C 3,9 km/h (1 Bft)
04.11.2015 02:25 9,9 C 10,2 C 60 % 1020,9 hPa 0,0 mm 4,1 km/h (1 Bft) SW 225 2,5 C 3,9 km/h (1 Bft)
04.11.2015 02:30 10,4 C 10,4 C 60 % 1021,1 hPa 0,0 mm 6,2 km/h (2 Bft) S 180 3,0 C 15,3 km/h (3 Bft)
04.11.2015 02:35 10,0 C 10,5 C 59 % 1021,1 hPa 0,0 mm 5,7 km/h (1 Bft) S-SW 202 2,4 C 13,5 km/h (3 Bft)
04.11.2015 02:40 10,0 C 10,4 C 59 % 1021,1 hPa 0,0 mm 4,4 km/h (1 Bft) S 180 2,4 C 4,9 km/h (1 Bft)
04.11.2015 02:45 9,8 C 10,3 C 60 % 1021,1 hPa 0,0 mm 4,1 km/h (1 Bft) S 180 2,4 C 7,8 km/h (2 Bft)
04.11.2015 02:50 9,6 C 10,2 C 60 % 1021,2 hPa 0,0 mm 3,4 km/h (1 Bft) S 180 2,2 C 3,6 km/h (1 Bft)
04.11.2015 02:55 8,8 C 9,4 C 62 % 1021,2 hPa 0,0 mm 2,6 km/h (1 Bft) SW 225 1,9 C 3,9 km/h (1 Bft)
04.11.2015 03:00 8,9 C 9,5 C 63 % 1021,2 hPa 0,0 mm 3,6 km/h (1 Bft) SW 225 2,2 C 9,3 km/h (2 Bft)
04.11.2015 03:05 9,0 C 9,9 C 63 % 1021,2 hPa 0,0 mm 6,0 km/h (2 Bft) SW 225 2,3 C 4,7 km/h (1 Bft)
04.11.2015 03:10 9,2 C 10,1 C 63 % 1021,2 hPa 0,0 mm 6,7 km/h (2 Bft) S-SW 202 2,5 C 11,7 km/h (2 Bft)
04.11.2015 03:15 9,4 C 10,4 C 63 % 1021,2 hPa 0,0 mm 6,0 km/h (2 Bft) N 360 2,7 C 10,4 km/h (2 Bft)
04.11.2015 03:20 9,8 C 10,6 C 63 % 1021,2 hPa 0,0 mm 6,7 km/h (2 Bft) SW 225 3,1 C 16,8 km/h (3 Bft)
04.11.2015 03:25 10,8 C 11,1 C 59 % 1021,2 hPa 0,0 mm 8,8 km/h (2 Bft) W-SW 247 3,1 C 12,7 km/h (3 Bft)
04.11.2015 03:30 11,2 C 11,2 C 58 % 1021,2 hPa 0,0 mm 10,6 km/h (2 Bft) W-SW 247 3,2 C 18,4 km/h (3 Bft)
04.11.2015 03:35 11,4 C 11,6 C 56 % 1021,2 hPa 0,0 mm 10,6 km/h (2 Bft) SW 225 2,9 C 12,7 km/h (3 Bft)
04.11.2015 03:40 11,9 C 11,9 C 55 % 1021,2 hPa 0,0 mm 10,9 km/h (2 Bft) S-SW 202 3,2 C 14,0 km/h (3 Bft)
04.11.2015 03:45 11,9 C 12,1 C 53 % 1021,2 hPa 0,0 mm 9,8 km/h (2 Bft) SW 225 2,6 C 12,9 km/h (3 Bft)
04.11.2015 03:50 12,2 C 12,3 C 52 % 1021,4 hPa 0,0 mm 9,6 km/h (2 Bft) S 180 2,6 C 6,7 km/h (2 Bft)
04.11.2015 03:55 12,1 C 12,3 C 51 % 1021,4 hPa 0,0 mm 11,4 km/h (2 Bft) SW 225 2,3 C 13,7 km/h (3 Bft)
04.11.2015 04:00 12,0 C 12,6 C 49 % 1021,4 hPa 0,0 mm 9,3 km/h (2 Bft) S-SW 202 1,6 C 6,7 km/h (2 Bft)
04.11.2015 04:05 12,3 C 12,6 C 49 % 1021,4 hPa 0,0 mm 7,3 km/h (2 Bft) SO 135 1,9 C 13,7 km/h (3 Bft)
04.11.2015 04:10 12,6 C 12,8 C 47 % 1021,9 hPa 0,0 mm 7,5 km/h (2 Bft) S 180 1,6 C 9,6 km/h (2 Bft)
04.11.2015 04:15 12,6 C 12,8 C 47 % 1021,9 hPa 0,0 mm 7,5 km/h (2 Bft) SW 225 1,6 C 6,7 km/h (2 Bft)
04.11.2015 04:20 12,5 C 12,8 C 47 % 1021,9 hPa 0,0 mm 5,7 km/h (1 Bft) W-SW 247 1,5 C 7,5 km/h (2 Bft)
04.11.2015 04:25 12,3 C 12,8 C 48 % 1021,9 hPa 0,0 mm 6,0 km/h (2 Bft) W 270 1,6 C 7,3 km/h (2 Bft)
04.11.2015 04:30 12,2 C 12,7 C 48 % 1021,6 hPa 0,0 mm 6,0 km/h (2 Bft) S-SW 202 1,5 C 7,3 km/h (2 Bft)
04.11.2015 04:35 12,4 C 12,5 C 47 % 1021,6 hPa 0,0 mm 6,2 km/h (2 Bft) S 180 1,4 C 10,9 km/h (2 Bft)
04.11.2015 04:40 12,4 C 12,6 C 46 % 1021,6 hPa 0,0 mm 8,0 km/h (2 Bft) SW 225 1,1 C 16,6 km/h (3 Bft)
04.11.2015 04:45 11,5 C 12,4 C 48 % 1021,6 hPa 0,0 mm 7,0 km/h (2 Bft) NO 45 0,9 C 0,0 km/h (0 Bft)
04.11.2015 04:50 11,2 C 11,8 C 49 % 1021,6 hPa 0,0 mm 4,4 km/h (1 Bft) SO 135 0,9 C 3,9 km/h (1 Bft)
04.11.2015 04:55 10,9 C 11,7 C 52 % 1021,6 hPa 0,0 mm 3,1 km/h (1 Bft) O-SO 112 1,4 C 0,0 km/h (0 Bft)
04.11.2015 05:00 11,0 C 11,0 C 52 % 1021,6 hPa 0,0 mm 0,5 km/h (0 Bft) SO 135 1,5 C 0,0 km/h (0 Bft)
04.11.2015 05:05 11,1 C 11,1 C 52 % 1021,6 hPa 0,0 mm 0,8 km/h (0 Bft) W 270 1,6 C 0,0 km/h (0 Bft)
04.11.2015 05:10 10,2 C 10,9 C 53 % 1021,9 hPa 0,0 mm 1,0 km/h (0 Bft) W 270 1,1 C 0,0 km/h (0 Bft)
04.11.2015 05:15 10,7 C 10,7 C 54 % 1021,9 hPa 0,0 mm 1,3 km/h (1 Bft) S 180 1,8 C 0,0 km/h (0 Bft)
04.11.2015 05:20 10,3 C 10,7 C 54 % 1021,9 hPa 0,0 mm 0,8 km/h (0 Bft) S 180 1,4 C 0,0 km/h (0 Bft)
04.11.2015 05:25 10,5 C 10,6 C 55 % 1021,9 hPa 0,0 mm 1,3 km/h (1 Bft) S 180 1,8 C 4,9 km/h (1 Bft)
04.11.2015 05:30 10,1 C 10,9 C 55 % 1022,1 hPa 0,0 mm 1,8 km/h (1 Bft) W-SW 247 1,5 C 0,0 km/h (0 Bft)
04.11.2015 05:35 9,0 C 10,2 C 56 % 1022,1 hPa 0,0 mm 1,0 km/h (0 Bft) W-SW 247 0,7 C 0,0 km/h (0 Bft)
04.11.2015 05:40 8,6 C 9,7 C 57 % 1022,1 hPa 0,0 mm 0,0 km/h (0 Bft) W-SW 247 0,6 C 0,0 km/h (0 Bft)
04.11.2015 05:45 9,5 C 9,5 C 56 % 1022,1 hPa 0,0 mm 1,3 km/h (1 Bft) S 180 1,2 C 0,0 km/h (0 Bft)
04.11.2015 05:50 8,4 C 9,3 C 57 % 1022,0 hPa 0,0 mm 1,3 km/h (1 Bft) S-SO 157 0,4 C 0,0 km/h (0 Bft)
04.11.2015 05:55 8,8 C 8,9 C 57 % 1022,0 hPa 0,0 mm 1,3 km/h (1 Bft) S 180 0,8 C 4,9 km/h (1 Bft)
04.11.2015 06:00 9,8 C 9,8 C 55 % 1022,0 hPa 0,0 mm 3,6 km/h (1 Bft) SW 225 1,2 C 5,7 km/h (1 Bft)
04.11.2015 06:05 8,4 C 9,4 C 55 % 1022,0 hPa 0,0 mm 4,4 km/h (1 Bft) NW 315 -0,1 C 0,0 km/h (0 Bft)
04.11.2015 06:10 9,0 C 8,9 C 56 % 1021,9 hPa 0,0 mm 2,6 km/h (1 Bft) S 180 0,7 C 3,9 km/h (1 Bft)
04.11.2015 06:15 9,0 C 9,0 C 55 % 1021,9 hPa 0,0 mm 1,0 km/h (0 Bft) S 180 0,5 C 0,0 km/h (0 Bft)
04.11.2015 06:20 8,0 C 8,7 C 56 % 1021,9 hPa 0,0 mm 1,3 km/h (1 Bft) N-NW 337 -0,2 C 0,0 km/h (0 Bft)
04.11.2015 06:25 8,0 C 8,3 C 57 % 1021,9 hPa 0,0 mm 3,1 km/h (1 Bft) S-SO 157 0,0 C 0,0 km/h (0 Bft)
04.11.2015 06:30 6,9 C 8,3 C 59 % 1021,9 hPa 0,0 mm 3,6 km/h (1 Bft) S-SO 157 -0,5 C 2,8 km/h (1 Bft)
04.11.2015 06:35 7,7 C 7,7 C 58 % 1021,9 hPa 0,0 mm 0,8 km/h (0 Bft) S-SO 157 -0,0 C 0,0 km/h (0 Bft)
04.11.2015 06:40 6,5 C 7,4 C 59 % 1021,9 hPa 0,0 mm 0,0 km/h (0 Bft) S-SW 202 -0,9 C 0,0 km/h (0 Bft)
04.11.2015 06:45 6,0 C 6,6 C 60 % 1021,9 hPa 0,0 mm 0,0 km/h (0 Bft) S-SO 157 -1,2 C 0,0 km/h (0 Bft)
04.11.2015 06:50 5,7 C 6,2 C 62 % 1022,0 hPa 0,0 mm 0,0 km/h (0 Bft) S-SO 157 -1,0 C 0,0 km/h (0 Bft)
04.11.2015 06:55 5,3 C 5,6 C 63 % 1022,0 hPa 0,0 mm 0,0 km/h (0 Bft) S-SO 157 -1,2 C 0,0 km/h (0 Bft)
04.11.2015 07:00 5,2 C 5,6 C 64 % 1022,0 hPa 0,0 mm 0,5 km/h (0 Bft) NO 45 -1,0 C 0,0 km/h (0 Bft)
04.11.2015 07:05 5,5 C 5,5 C 66 % 1022,0 hPa 0,0 mm 0,5 km/h (0 Bft) NO 45 -0,3 C 0,0 km/h (0 Bft)
04.11.2015 07:10 5,6 C 5,6 C 66 % 1022,1 hPa 0,0 mm 0,5 km/h (0 Bft) NO 45 -0,2 C 0,0 km/h (0 Bft)
04.11.2015 07:15 6,4 C 6,1 C 63 % 1022,1 hPa 0,0 mm 0,0 km/h (0 Bft) SO 135 -0,1 C 0,0 km/h (0 Bft)
04.11.2015 07:20 5,8 C 5,7 C 65 % 1022,1 hPa 0,0 mm 0,0 km/h (0 Bft) O-SO 112 -0,3 C 0,0 km/h (0 Bft)
04.11.2015 07:25 5,0 C 5,1 C 65 % 1022,1 hPa 0,0 mm 0,0 km/h (0 Bft) O-SO 112 -1,0 C 0,0 km/h (0 Bft)
04.11.2015 07:30 4,9 C 4,9 C 67 % 1022,3 hPa 0,0 mm 0,0 km/h (0 Bft) SO 135 -0,7 C 0,0 km/h (0 Bft)
04.11.2015 07:35 5,2 C 5,0 C 68 % 1022,3 hPa 0,0 mm 0,0 km/h (0 Bft) O-SO 112 -0,2 C 0,0 km/h (0 Bft)
04.11.2015 07:40 5,1 C 5,0 C 68 % 1022,3 hPa 0,0 mm 0,0 km/h (0 Bft) O-SO 112 -0,3 C 0,0 km/h (0 Bft)
04.11.2015 07:45 4,8 C 4,8 C 68 % 1022,3 hPa 0,0 mm 0,0 km/h (0 Bft) O-SO 112 -0,6 C 0,0 km/h (0 Bft)
04.11.2015 07:50 4,8 C 4,8 C 68 % 1022,4 hPa 0,0 mm 0,0 km/h (0 Bft) O-SO 112 -0,6 C 0,0 km/h (0 Bft)
04.11.2015 07:55 4,7 C 4,7 C 69 % 1022,4 hPa 0,0 mm 0,0 km/h (0 Bft) O-SO 112 -0,5 C 0,0 km/h (0 Bft)
04.11.2015 08:00 4,8 C 4,8 C 71 % 1022,4 hPa 0,0 mm 0,0 km/h (0 Bft) O-SO 112 -0,0 C 0,0 km/h (0 Bft)
04.11.2015 08:05 5,3 C 5,1 C 72 % 1022,4 hPa 0,0 mm 0,0 km/h (0 Bft) O-SO 112 0,7 C 0,0 km/h (0 Bft)
04.11.2015 08:09 5,2 C 3,5 C 71 % 1022,4 hPa 0,0 mm 0,0 km/h (0 Bft) O-SO 112 0,4 C 0,0 km/h (0 Bft)
04.11.2015 08:10 5,2 C 3,5 C 71 % 1022,4 hPa 0,0 mm 0,0 km/h (0 Bft) O-SO 112 0,4 C 0,0 km/h (0 Bft)
04.11.2015 08:15 5,1 C 3,4 C 71 % 1022,4 hPa 0,0 mm 0,0 km/h (0 Bft) O-SO 112 0,3 C 0,0 km/h (0 Bft)
04.11.2015 08:20 5,2 C 3,5 C 71 % 1022,4 hPa 0,0 mm 0,0 km/h (0 Bft) O-SO 112 0,4 C 0,0 km/h (0 Bft)
04.11.2015 08:25 5,7 C 3,8 C 72 % 1022,4 hPa 0,0 mm 0,0 km/h (0 Bft) O-SO 112 1,1 C 0,0 km/h (0 Bft)
04.11.2015 08:30 5,7 C 3,8 C 72 % 1022,5 hPa 0,0 mm 0,0 km/h (0 Bft) O-SO 112 1,1 C 0,0 km/h (0 Bft)
04.11.2015 08:35 6,0 C 4,0 C 71 % 1022,5 hPa 0,0 mm 0,0 km/h (0 Bft) O-SO 112 1,1 C 0,0 km/h (0 Bft)
04.11.2015 08:40 6,0 C 4,0 C 70 % 1022,5 hPa 0,0 mm 0,0 km/h (0 Bft) O-SO 112 1,0 C 0,0 km/h (0 Bft)
04.11.2015 08:45 6,4 C 4,3 C 70 % 1022,5 hPa 0,0 mm 0,0 km/h (0 Bft) O-SO 112 1,3 C 0,0 km/h (0 Bft)
04.11.2015 08:50 7,0 C 4,7 C 68 % 1022,4 hPa 0,0 mm 0,0 km/h (0 Bft) O-SO 112 1,5 C 0,0 km/h (0 Bft)
04.11.2015 08:55 7,1 C 4,9 C 68 % 1022,4 hPa 0,0 mm 0,0 km/h (0 Bft) O-SO 112 1,6 C 0,0 km/h (0 Bft)
04.11.2015 09:00 7,1 C 4,9 C 68 % 1022,4 hPa 0,0 mm 0,0 km/h (0 Bft) O-SO 112 1,6 C 0,0 km/h (0 Bft)
04.11.2015 09:05 7,7 C 5,3 C 67 % 1022,4 hPa 0,0 mm 0,0 km/h (0 Bft) O-SO 112 2,0 C 0,0 km/h (0 Bft)
04.11.2015 09:10 7,8 C 5,4 C 67 % 1022,3 hPa 0,0 mm 0,0 km/h (0 Bft) O-SO 112 2,1 C 0,0 km/h (0 Bft)
04.11.2015 09:15 8,3 C 5,5 C 66 % 1022,3 hPa 0,0 mm 0,0 km/h (0 Bft) O-SO 112 2,3 C 0,0 km/h (0 Bft)
04.11.2015 09:20 8,7 C 5,8 C 66 % 1022,3 hPa 0,0 mm 0,0 km/h (0 Bft) O-SO 112 2,7 C 0,0 km/h (0 Bft)
04.11.2015 09:25 8,7 C 5,8 C 66 % 1022,3 hPa 0,0 mm 0,0 km/h (0 Bft) O-SO 112 2,7 C 0,0 km/h (0 Bft)
04.11.2015 09:30 8,9 C 6,1 C 66 % 1022,4 hPa 0,0 mm 0,0 km/h (0 Bft) O-SO 112 2,9 C 0,0 km/h (0 Bft)
04.11.2015 09:35 9,6 C 6,6 C 66 % 1022,4 hPa 0,0 mm 0,0 km/h (0 Bft) O-SO 112 3,6 C 0,0 km/h (0 Bft)
04.11.2015 09:40 10,0 C 6,9 C 65 % 1022,4 hPa 0,0 mm 0,0 km/h (0 Bft) O-SO 112 3,7 C 0,0 km/h (0 Bft)
04.11.2015 09:45 10,4 C 7,1 C 65 % 1022,4 hPa 0,0 mm 0,0 km/h (0 Bft) O-SO 112 4,1 C 0,0 km/h (0 Bft)
04.11.2015 09:50 10,7 C 7,3 C 65 % 1022,1 hPa 0,0 mm 0,0 km/h (0 Bft) O-SO 112 4,4 C 0,0 km/h (0 Bft)
04.11.2015 09:55 11,2 C 7,7 C 64 % 1022,1 hPa 0,0 mm 0,0 km/h (0 Bft) O-SO 112 4,6 C 0,0 km/h (0 Bft)
04.11.2015 10:00 11,5 C 7,9 C 63 % 1022,1 hPa 0,0 mm 0,0 km/h (0 Bft) O-SO 112 4,7 C 0,0 km/h (0 Bft)
04.11.2015 10:05 12,0 C 8,2 C 62 % 1022,1 hPa 0,0 mm 0,0 km/h (0 Bft) O-SO 112 4,9 C 0,0 km/h (0 Bft)
04.11.2015 10:10 12,4 C 8,3 C 62 % 1022,0 hPa 0,0 mm 0,0 km/h (0 Bft) O-SO 112 5,3 C 0,0 km/h (0 Bft)
04.11.2015 10:15 12,6 C 8,5 C 59 % 1022,0 hPa 0,0 mm 0,0 km/h (0 Bft) O-SO 112 4,8 C 0,0 km/h (0 Bft)
04.11.2015 10:20 12,7 C 8,5 C 59 % 1022,0 hPa 0,0 mm 0,0 km/h (0 Bft) O-SO 112 4,9 C 0,0 km/h (0 Bft)
04.11.2015 10:25 12,7 C 8,5 C 58 % 1022,0 hPa 0,0 mm 0,0 km/h (0 Bft) O-SO 112 4,7 C 0,0 km/h (0 Bft)
04.11.2015 10:30 12,5 C 8,3 C 57 % 1022,1 hPa 0,0 mm 0,0 km/h (0 Bft) O-SO 112 4,2 C 0,0 km/h (0 Bft)
04.11.2015 10:35 12,4 C 8,3 C 56 % 1022,1 hPa 0,0 mm 0,0 km/h (0 Bft) O-SO 112 3,9 C 0,0 km/h (0 Bft)
04.11.2015 10:40 12,4 C 8,3 C 56 % 1022,1 hPa 0,0 mm 0,0 km/h (0 Bft) O-SO 112 3,9 C 0,0 km/h (0 Bft)
04.11.2015 10:45 12,7 C 8,5 C 55 % 1022,1 hPa 0,0 mm 0,0 km/h (0 Bft) O-SO 112 3,9 C 0,0 km/h (0 Bft)
04.11.2015 10:50 12,6 C 8,4 C 54 % 1022,1 hPa 0,0 mm 0,0 km/h (0 Bft) O-SO 112 3,5 C 0,0 km/h (0 Bft)
04.11.2015 10:55 12,8 C 8,5 C 54 % 1022,1 hPa 0,0 mm 0,0 km/h (0 Bft) O-SO 112 3,7 C 0,0 km/h (0 Bft)
04.11.2015 11:00 13,0 C 8,7 C 53 % 1022,1 hPa 0,0 mm 0,0 km/h (0 Bft) O-SO 112 3,6 C 0,0 km/h (0 Bft)
04.11.2015 11:05 13,2 C 8,8 C 53 % 1022,1 hPa 0,0 mm 0,0 km/h (0 Bft) O-SO 112 3,8 C 0,0 km/h (0 Bft)
04.11.2015 11:10 13,2 C 8,8 C 54 % 1022,0 hPa 0,0 mm 0,0 km/h (0 Bft) O-SO 112 4,1 C 0,0 km/h (0 Bft)
04.11.2015 11:15 13,6 C 9,1 C 53 % 1022,0 hPa 0,0 mm 0,0 km/h (0 Bft) O-SO 112 4,2 C 0,0 km/h (0 Bft)
04.11.2015 11:20 13,8 C 9,2 C 53 % 1022,0 hPa 0,0 mm 0,0 km/h (0 Bft) O-SO 112 4,4 C 0,0 km/h (0 Bft)
04.11.2015 11:25 13,9 C 9,3 C 53 % 1022,0 hPa 0,0 mm 0,0 km/h (0 Bft) O-SO 112 4,5 C 0,0 km/h (0 Bft)
04.11.2015 11:30 14,1 C 9,5 C 53 % 1021,9 hPa 0,0 mm 0,0 km/h (0 Bft) O-SO 112 4,7 C 0,0 km/h (0 Bft)
04.11.2015 11:35 14,3 C 9,7 C 52 % 1021,9 hPa 0,0 mm 0,0 km/h (0 Bft) O-SO 112 4,6 C 0,0 km/h (0 Bft)
04.11.2015 11:40 14,5 C 9,9 C 52 % 1021,9 hPa 0,0 mm 0,0 km/h (0 Bft) O-SO 112 4,8 C 0,0 km/h (0 Bft)
04.11.2015 11:45 14,7 C 10,1 C 53 % 1021,9 hPa 0,0 mm 0,0 km/h (0 Bft) O-SO 112 5,2 C 0,0 km/h (0 Bft)
04.11.2015 11:50 14,8 C 10,1 C 53 % 1021,8 hPa 0,0 mm 0,0 km/h (0 Bft) O-SO 112 5,3 C 0,0 km/h (0 Bft)
04.11.2015 11:55 14,9 C 10,1 C 53 % 1021,8 hPa 0,0 mm 0,0 km/h (0 Bft) O-SO 112 5,4 C 0,0 km/h (0 Bft)
04.11.2015 12:00 15,1 C 10,2 C 53 % 1021,8 hPa 0,0 mm 0,0 km/h (0 Bft) O-SO 112 5,6 C 0,0 km/h (0 Bft)
04.11.2015 12:05 15,1 C 10,1 C 53 % 1021,8 hPa 0,0 mm 0,0 km/h (0 Bft) O-SO 112 5,6 C 0,0 km/h (0 Bft)
04.11.2015 12:10 15,0 C 10,1 C 53 % 1021,6 hPa 0,0 mm 0,0 km/h (0 Bft) O-SO 112 5,5 C 0,0 km/h (0 Bft)
04.11.2015 12:15 15,0 C 10,1 C 53 % 1021,6 hPa 0,0 mm 0,0 km/h (0 Bft) O-SO 112 5,5 C 0,0 km/h (0 Bft)
04.11.2015 12:20 15,1 C 10,1 C 54 % 1021,6 hPa 0,0 mm 0,0 km/h (0 Bft) O-SO 112 5,9 C 0,0 km/h (0 Bft)
04.11.2015 12:25 15,1 C 10,3 C 54 % 1021,6 hPa 0,0 mm 0,0 km/h (0 Bft) O-SO 112 5,9 C 0,0 km/h (0 Bft)
04.11.2015 12:30 15,2 C 10,3 C 54 % 1021,6 hPa 0,0 mm 0,0 km/h (0 Bft) O-SO 112 6,0 C 0,0 km/h (0 Bft)
04.11.2015 12:35 15,3 C 10,5 C 54 % 1021,6 hPa 0,0 mm 0,0 km/h (0 Bft) O-SO 112 6,0 C 0,0 km/h (0 Bft)
04.11.2015 12:40 15,4 C 10,5 C 55 % 1021,6 hPa 0,0 mm 0,0 km/h (0 Bft) O-SO 112 6,4 C 0,0 km/h (0 Bft)
04.11.2015 12:45 15,4 C 10,4 C 55 % 1021,6 hPa 0,0 mm 0,0 km/h (0 Bft) O-SO 112 6,4 C 0,0 km/h (0 Bft)
04.11.2015 12:50 15,5 C 10,5 C 55 % 1021,5 hPa 0,0 mm 0,0 km/h (0 Bft) O-SO 112 6,5 C 0,0 km/h (0 Bft)
04.11.2015 12:55 15,5 C 10,5 C 55 % 1021,5 hPa 0,0 mm 0,0 km/h (0 Bft) O-SO 112 6,5 C 0,0 km/h (0 Bft)
04.11.2015 13:00 15,5 C 10,5 C 55 % 1021,5 hPa 0,0 mm 0,0 km/h (0 Bft) O-SO 112 6,5 C 0,0 km/h (0 Bft)
04.11.2015 13:05 15,4 C 10,4 C 54 % 1021,5 hPa 0,0 mm 0,0 km/h (0 Bft) O-SO 112 6,1 C 0,0 km/h (0 Bft)
04.11.2015 13:10 15,4 C 10,4 C 55 % 1021,4 hPa 0,0 mm 0,0 km/h (0 Bft) O-SO 112 6,4 C 0,0 km/h (0 Bft)
04.11.2015 13:15 15,4 C 10,4 C 55 % 1021,4 hPa 0,0 mm 0,0 km/h (0 Bft) O-SO 112 6,4 C 0,0 km/h (0 Bft)
04.11.2015 13:20 15,4 C 10,4 C 55 % 1021,4 hPa 0,0 mm 0,0 km/h (0 Bft) O-SO 112 6,4 C 0,0 km/h (0 Bft)
04.11.2015 13:25 15,4 C 10,4 C 55 % 1021,4 hPa 0,0 mm 0,0 km/h (0 Bft) O-SO 112 6,4 C 0,0 km/h (0 Bft)
04.11.2015 13:30 15,4 C 10,4 C 55 % 1021,3 hPa 0,0 mm 0,0 km/h (0 Bft) O-SO 112 6,4 C 0,0 km/h (0 Bft)
04.11.2015 13:35 15,3 C 10,3 C 55 % 1021,3 hPa 0,0 mm 0,0 km/h (0 Bft) O-SO 112 6,3 C 0,0 km/h (0 Bft)
04.11.2015 13:40 15,3 C 10,3 C 55 % 1021,3 hPa 0,0 mm 0,0 km/h (0 Bft) O-SO 112 6,3 C 0,0 km/h (0 Bft)
04.11.2015 13:45 15,3 C 10,3 C 55 % 1021,3 hPa 0,0 mm 0,0 km/h (0 Bft) O-SO 112 6,3 C 0,0 km/h (0 Bft)
04.11.2015 13:50 15,3 C 10,3 C 55 % 1021,0 hPa 0,0 mm 0,0 km/h (0 Bft) O-SO 112 6,3 C 0,0 km/h (0 Bft)
04.11.2015 13:55 15,3 C 10,3 C 55 % 1021,0 hPa 0,0 mm 0,0 km/h (0 Bft) O-SO 112 6,3 C 0,0 km/h (0 Bft)
04.11.2015 14:00 15,3 C 10,3 C 54 % 1021,0 hPa 0,0 mm 0,0 km/h (0 Bft) O-SO 112 6,0 C 0,0 km/h (0 Bft)
04.11.2015 14:05 15,2 C 10,3 C 54 % 1021,0 hPa 0,0 mm 0,0 km/h (0 Bft) O-SO 112 6,0 C 0,0 km/h (0 Bft)
04.11.2015 14:09 15,2 C 10,2 C 55 % 1021,0 hPa 0,0 mm 0,0 km/h (0 Bft) O-SO 112 6,2 C 0,0 km/h (0 Bft)
04.11.2015 14:11 15,2 C 10,2 C 55 % 1021,0 hPa 0,0 mm 0,0 km/h (0 Bft) O-SO 112 6,2 C 0,0 km/h (0 Bft)
04.11.2015 14:15 15,2 C 10,2 C 55 % 1021,0 hPa 0,0 mm 0,0 km/h (0 Bft) O-SO 112 6,2 C 0,0 km/h (0 Bft)
04.11.2015 14:20 15,2 C 10,3 C 55 % 1021,0 hPa 0,0 mm 0,0 km/h (0 Bft) O-SO 112 6,2 C 0,0 km/h (0 Bft)
04.11.2015 14:25 15,3 C 10,3 C 56 % 1021,0 hPa 0,0 mm 0,0 km/h (0 Bft) O-SO 112 6,6 C 0,0 km/h (0 Bft)
04.11.2015 14:30 15,2 C 10,1 C 56 % 1020,9 hPa 0,0 mm 0,0 km/h (0 Bft) O-SO 112 6,5 C 0,0 km/h (0 Bft)
04.11.2015 14:35 15,1 C 10,1 C 56 % 1020,9 hPa 0,0 mm 0,0 km/h (0 Bft) O-SO 112 6,4 C 0,0 km/h (0 Bft)
04.11.2015 14:40 15,0 C 10,0 C 56 % 1020,9 hPa 0,0 mm 0,0 km/h (0 Bft) O-SO 112 6,3 C 0,0 km/h (0 Bft)
04.11.2015 14:45 15,0 C 10,0 C 56 % 1020,9 hPa 0,0 mm 0,0 km/h (0 Bft) O-SO 112 6,3 C 0,0 km/h (0 Bft)
04.11.2015 14:50 14,9 C 9,9 C 56 % 1021,0 hPa 0,0 mm 0,0 km/h (0 Bft) O-SO 112 6,2 C 0,0 km/h (0 Bft)
04.11.2015 14:55 15,0 C 10,0 C 56 % 1021,0 hPa 0,0 mm 0,0 km/h (0 Bft) O-SO 112 6,3 C 0,0 km/h (0 Bft)
04.11.2015 15:00 15,0 C 10,0 C 57 % 1021,0 hPa 0,0 mm 0,0 km/h (0 Bft) O-SO 112 6,6 C 0,0 km/h (0 Bft)
04.11.2015 15:05 14,8 C 9,9 C 57 % 1021,0 hPa 0,0 mm 0,0 km/h (0 Bft) O-SO 112 6,4 C 0,0 km/h (0 Bft)
04.11.2015 15:10 14,7 C 9,8 C 57 % 1021,0 hPa 0,0 mm 0,0 km/h (0 Bft) O-SO 112 6,3 C 0,0 km/h (0 Bft)
04.11.2015 15:15 14,4 C 9,6 C 57 % 1021,0 hPa 0,0 mm 0,0 km/h (0 Bft) O-SO 112 6,0 C 0,0 km/h (0 Bft)
04.11.2015 15:20 14,3 C 9,5 C 57 % 1021,0 hPa 0,0 mm 0,0 km/h (0 Bft) O-SO 112 5,9 C 0,0 km/h (0 Bft)
04.11.2015 15:25 14,1 C 9,4 C 57 % 1021,0 hPa 0,0 mm 0,0 km/h (0 Bft) O-SO 112 5,7 C 0,0 km/h (0 Bft)
04.11.2015 15:30 13,9 C 9,3 C 57 % 1020,8 hPa 0,0 mm 0,0 km/h (0 Bft) O-SO 112 5,5 C 0,0 km/h (0 Bft)
04.11.2015 15:35 13,7 C 9,1 C 58 % 1020,8 hPa 0,0 mm 0,0 km/h (0 Bft) O-SO 112 5,6 C 0,0 km/h (0 Bft)
04.11.2015 15:40 13,6 C 9,1 C 58 % 1020,8 hPa 0,0 mm 0,0 km/h (0 Bft) O-SO 112 5,5 C 0,0 km/h (0 Bft)
04.11.2015 15:45 13,6 C 9,1 C 59 % 1020,8 hPa 0,0 mm 0,0 km/h (0 Bft) O-SO 112 5,7 C 0,0 km/h (0 Bft)
04.11.2015 15:50 13,6 C 9,1 C 59 % 1020,8 hPa 0,0 mm 0,0 km/h (0 Bft) O-SO 112 5,7 C 0,0 km/h (0 Bft)
04.11.2015 15:55 13,4 C 8,9 C 59 % 1020,8 hPa 0,0 mm 0,0 km/h (0 Bft) O-SO 112 5,6 C 0,0 km/h (0 Bft)
04.11.2015 16:00 13,3 C 8,9 C 59 % 1020,8 hPa 0,0 mm 0,0 km/h (0 Bft) O-SO 112 5,5 C 0,0 km/h (0 Bft)
04.11.2015 16:05 12,9 C 8,6 C 59 % 1020,8 hPa 0,0 mm 0,0 km/h (0 Bft) O-SO 112 5,1 C 0,0 km/h (0 Bft)
04.11.2015 16:10 12,7 C 8,5 C 60 % 1020,9 hPa 0,0 mm 0,0 km/h (0 Bft) O-SO 112 5,1 C 0,0 km/h (0 Bft)
04.11.2015 16:15 12,6 C 8,4 C 61 % 1020,9 hPa 0,0 mm 0,0 km/h (0 Bft) O-SO 112 5,3 C 0,0 km/h (0 Bft)
04.11.2015 16:20 12,5 C 8,3 C 62 % 1020,9 hPa 0,0 mm 0,0 km/h (0 Bft) O-SO 112 5,4 C 0,0 km/h (0 Bft)
04.11.2015 16:25 12,3 C 8,2 C 63 % 1020,9 hPa 0,0 mm 0,0 km/h (0 Bft) O-SO 112 5,5 C 0,0 km/h (0 Bft)
04.11.2015 16:30 12,3 C 8,2 C 63 % 1020,9 hPa 0,0 mm 0,0 km/h (0 Bft) O-SO 112 5,5 C 0,0 km/h (0 Bft)
04.11.2015 16:35 12,3 C 8,2 C 64 % 1020,9 hPa 0,0 mm 0,0 km/h (0 Bft) O-SO 112 5,7 C 0,0 km/h (0 Bft)
04.11.2015 16:40 12,2 C 8,1 C 64 % 1020,9 hPa 0,0 mm 0,0 km/h (0 Bft) O-SO 112 5,6 C 0,0 km/h (0 Bft)
04.11.2015 16:45 12,2 C 8,1 C 64 % 1020,9 hPa 0,0 mm 0,0 km/h (0 Bft) O-SO 112 5,6 C 0,0 km/h (0 Bft)
04.11.2015 16:50 12,0 C 8,0 C 64 % 1020,9 hPa 0,0 mm 0,0 km/h (0 Bft) O-SO 112 5,4 C 0,0 km/h (0 Bft)
04.11.2015 16:55 11,9 C 7,9 C 65 % 1020,9 hPa 0,0 mm 0,0 km/h (0 Bft) O-SO 112 5,5 C 0,0 km/h (0 Bft)
04.11.2015 17:00 11,9 C 7,9 C 65 % 1020,9 hPa 0,0 mm 0,0 km/h (0 Bft) O-SO 112 5,5 C 0,0 km/h (0 Bft)
04.11.2015 17:05 11,7 C 7,8 C 65 % 1020,9 hPa 0,0 mm 0,0 km/h (0 Bft) O-SO 112 5,3 C 0,0 km/h (0 Bft)
04.11.2015 17:10 11,5 C 7,7 C 66 % 1020,8 hPa 0,0 mm 0,0 km/h (0 Bft) O-SO 112 5,4 C 0,0 km/h (0 Bft)
04.11.2015 17:15 11,2 C 7,5 C 66 % 1020,8 hPa 0,0 mm 0,0 km/h (0 Bft) O-SO 112 5,1 C 0,0 km/h (0 Bft)
04.11.2015 17:20 10,9 C 7,3 C 67 % 1020,8 hPa 0,0 mm 0,0 km/h (0 Bft) O-SO 112 5,0 C 0,0 km/h (0 Bft)
04.11.2015 17:25 11,3 C 7,5 C 67 % 1020,8 hPa 0,0 mm 0,0 km/h (0 Bft) O-SO 112 5,4 C 0,0 km/h (0 Bft)
04.11.2015 17:30 11,3 C 7,5 C 67 % 1021,1 hPa 0,0 mm 0,0 km/h (0 Bft) O-SO 112 5,4 C 0,0 km/h (0 Bft)
04.11.2015 17:35 10,8 C 7,2 C 69 % 1021,1 hPa 0,0 mm 0,0 km/h (0 Bft) O-SO 112 5,3 C 0,0 km/h (0 Bft)
04.11.2015 17:40 10,8 C 7,2 C 69 % 1021,1 hPa 0,0 mm 0,0 km/h (0 Bft) O-SO 112 5,3 C 0,0 km/h (0 Bft)
04.11.2015 17:45 11,0 C 7,3 C 69 % 1021,1 hPa 0,0 mm 0,0 km/h (0 Bft) O-SO 112 5,5 C 0,0 km/h (0 Bft)
04.11.2015 17:50 10,9 C 7,3 C 69 % 1021,1 hPa 0,0 mm 0,0 km/h (0 Bft) O-SO 112 5,4 C 0,0 km/h (0 Bft)
04.11.2015 17:55 10,8 C 7,2 C 69 % 1021,1 hPa 0,0 mm 0,0 km/h (0 Bft) O-SO 112 5,3 C 0,0 km/h (0 Bft)
04.11.2015 18:00 10,3 C 6,9 C 69 % 1021,1 hPa 0,0 mm 0,0 km/h (0 Bft) O-SO 112 4,9 C 0,0 km/h (0 Bft)
04.11.2015 18:05 9,6 C 6,4 C 70 % 1021,1 hPa 0,0 mm 0,0 km/h (0 Bft) O-SO 112 4,4 C 0,0 km/h (0 Bft)
04.11.2015 18:10 9,3 C 6,2 C 70 % 1021,2 hPa 0,0 mm 0,0 km/h (0 Bft) O-SO 112 4,1 C 0,0 km/h (0 Bft)
04.11.2015 18:15 9,1 C 6,1 C 72 % 1021,2 hPa 0,0 mm 0,0 km/h (0 Bft) O-SO 112 4,3 C 0,0 km/h (0 Bft)
04.11.2015 18:20 9,3 C 6,4 C 72 % 1021,2 hPa 0,0 mm 0,0 km/h (0 Bft) O-SO 112 4,5 C 0,0 km/h (0 Bft)
04.11.2015 18:25 9,4 C 6,6 C 73 % 1021,2 hPa 0,0 mm 0,0 km/h (0 Bft) O-SO 112 4,8 C 0,0 km/h (0 Bft)
04.11.2015 18:30 9,4 C 6,5 C 73 % 1021,2 hPa 0,0 mm 0,0 km/h (0 Bft) O-SO 112 4,8 C 0,0 km/h (0 Bft)
04.11.2015 18:35 9,1 C 6,1 C 73 % 1021,2 hPa 0,0 mm 0,0 km/h (0 Bft) O-SO 112 4,5 C 0,0 km/h (0 Bft)
04.11.2015 18:40 9,2 C 6,3 C 73 % 1021,2 hPa 0,0 mm 0,0 km/h (0 Bft) O-SO 112 4,6 C 0,0 km/h (0 Bft)
04.11.2015 18:45 8,9 C 5,9 C 74 % 1021,2 hPa 0,0 mm 0,0 km/h (0 Bft) O-SO 112 4,5 C 0,0 km/h (0 Bft)
04.11.2015 18:50 8,8 C 5,9 C 75 % 1021,2 hPa 0,0 mm 0,0 km/h (0 Bft) O-SO 112 4,6 C 0,0 km/h (0 Bft)
04.11.2015 18:55 8,6 C 5,9 C 74 % 1021,2 hPa 0,0 mm 0,0 km/h (0 Bft) O-SO 112 4,2 C 0,0 km/h (0 Bft)
04.11.2015 19:00 9,0 C 6,3 C 74 % 1021,2 hPa 0,0 mm 0,0 km/h (0 Bft) O-SO 112 4,6 C 0,0 km/h (0 Bft)
04.11.2015 19:05 8,3 C 5,5 C 74 % 1021,2 hPa 0,0 mm 0,0 km/h (0 Bft) O-SO 112 3,9 C 0,0 km/h (0 Bft)
04.11.2015 19:10 7,9 C 5,3 C 74 % 1021,2 hPa 0,0 mm 0,0 km/h (0 Bft) O-SO 112 3,6 C 0,0 km/h (0 Bft)
04.11.2015 19:15 7,5 C 5,0 C 75 % 1021,2 hPa 0,0 mm 0,0 km/h (0 Bft) O-SO 112 3,4 C 0,0 km/h (0 Bft)
04.11.2015 19:20 7,4 C 4,9 C 75 % 1021,2 hPa 0,0 mm 0,0 km/h (0 Bft) O-SO 112 3,3 C 0,0 km/h (0 Bft)
04.11.2015 19:25 7,7 C 5,1 C 78 % 1021,2 hPa 0,0 mm 0,0 km/h (0 Bft) O-SO 112 4,1 C 0,0 km/h (0 Bft)
04.11.2015 19:30 7,8 C 5,2 C 78 % 1021,2 hPa 0,0 mm 0,0 km/h (0 Bft) O-SO 112 4,2 C 0,0 km/h (0 Bft)
04.11.2015 19:35 7,3 C 4,9 C 77 % 1021,2 hPa 0,0 mm 0,0 km/h (0 Bft) O-SO 112 3,5 C 0,0 km/h (0 Bft)
04.11.2015 19:40 7,3 C 4,9 C 77 % 1021,2 hPa 0,0 mm 0,0 km/h (0 Bft) O-SO 112 3,5 C 0,0 km/h (0 Bft)
04.11.2015 19:45 7,5 C 5,1 C 76 % 1021,2 hPa 0,0 mm 0,0 km/h (0 Bft) O-SO 112 3,5 C 0,0 km/h (0 Bft)
04.11.2015 19:50 7,5 C 5,1 C 76 % 1021,1 hPa 0,0 mm 0,0 km/h (0 Bft) O-SO 112 3,5 C 0,0 km/h (0 Bft)
04.11.2015 19:55 8,1 C 5,5 C 77 % 1021,1 hPa 0,0 mm 0,0 km/h (0 Bft) O-SO 112 4,3 C 0,0 km/h (0 Bft)
04.11.2015 20:00 8,6 C 5,7 C 79 % 1021,1 hPa 0,0 mm 0,0 km/h (0 Bft) O-SO 112 5,2 C 0,0 km/h (0 Bft)
04.11.2015 20:05 8,3 C 5,5 C 78 % 1021,1 hPa 0,0 mm 0,0 km/h (0 Bft) O-SO 112 4,7 C 0,0 km/h (0 Bft)
04.11.2015 20:10 7,4 C 4,9 C 77 % 1021,1 hPa 0,0 mm 0,0 km/h (0 Bft) O-SO 112 3,6 C 0,0 km/h (0 Bft)
04.11.2015 20:12 7,4 C 4,9 C 77 % 1021,1 hPa 0,0 mm 0,0 km/h (0 Bft) O-SO 112 3,6 C 0,0 km/h (0 Bft)
04.11.2015 20:15 7,1 C 4,7 C 77 % 1021,1 hPa 0,0 mm 0,0 km/h (0 Bft) O-SO 112 3,3 C 0,0 km/h (0 Bft)
04.11.2015 20:20 7,0 C 4,7 C 78 % 1021,1 hPa 0,0 mm 0,0 km/h (0 Bft) O-SO 112 3,4 C 0,0 km/h (0 Bft)
04.11.2015 20:25 7,3 C 4,9 C 79 % 1021,1 hPa 0,0 mm 0,0 km/h (0 Bft) O-SO 112 3,9 C 0,0 km/h (0 Bft)
04.11.2015 20:30 7,4 C 4,9 C 80 % 1020,9 hPa 0,0 mm 0,0 km/h (0 Bft) O-SO 112 4,2 C 0,0 km/h (0 Bft)
04.11.2015 20:35 6,7 C 4,5 C 79 % 1020,9 hPa 0,0 mm 0,0 km/h (0 Bft) O-SO 112 3,3 C 0,0 km/h (0 Bft)
04.11.2015 20:40 6,4 C 4,3 C 79 % 1020,9 hPa 0,0 mm 0,0 km/h (0 Bft) O-SO 112 3,0 C 0,0 km/h (0 Bft)
04.11.2015 20:45 6,4 C 6,3 C 79 % 1020,9 hPa 0,0 mm 0,0 km/h (0 Bft) SO 135 3,0 C 0,0 km/h (0 Bft)
04.11.2015 20:50 6,5 C 6,4 C 80 % 1020,9 hPa 0,0 mm 0,0 km/h (0 Bft) S-SO 157 3,3 C 0,0 km/h (0 Bft)
04.11.2015 20:55 6,9 C 6,7 C 78 % 1020,9 hPa 0,0 mm 0,0 km/h (0 Bft) O-SO 112 3,3 C 2,6 km/h (1 Bft)
04.11.2015 21:00 6,4 C 6,3 C 80 % 1020,9 hPa 0,0 mm 0,0 km/h (0 Bft) O-SO 112 3,2 C 0,0 km/h (0 Bft)
04.11.2015 21:05 5,7 C 5,7 C 81 % 1020,9 hPa 0,0 mm 0,0 km/h (0 Bft) O-SO 112 2,7 C 0,0 km/h (0 Bft)
04.11.2015 21:10 5,5 C 5,4 C 80 % 1021,0 hPa 0,0 mm 0,0 km/h (0 Bft) O-SO 112 2,3 C 0,0 km/h (0 Bft)
04.11.2015 21:15 5,3 C 5,2 C 81 % 1021,0 hPa 0,0 mm 0,0 km/h (0 Bft) O-SO 112 2,3 C 0,0 km/h (0 Bft)
04.11.2015 21:20 5,6 C 5,3 C 82 % 1021,0 hPa 0,0 mm 0,0 km/h (0 Bft) O-SO 112 2,8 C 0,0 km/h (0 Bft)
04.11.2015 21:25 5,2 C 5,0 C 82 % 1021,0 hPa 0,0 mm 0,0 km/h (0 Bft) O-SO 112 2,4 C 0,0 km/h (0 Bft)
04.11.2015 21:30 5,0 C 4,9 C 82 % 1020,8 hPa 0,0 mm 0,0 km/h (0 Bft) O-SO 112 2,2 C 0,0 km/h (0 Bft)
04.11.2015 21:35 4,9 C 4,7 C 82 % 1020,8 hPa 0,0 mm 0,0 km/h (0 Bft) O-SO 112 2,1 C 0,0 km/h (0 Bft)
04.11.2015 21:40 4,8 C 4,6 C 82 % 1020,8 hPa 0,0 mm 0,0 km/h (0 Bft) O-SO 112 2,0 C 0,0 km/h (0 Bft)
04.11.2015 21:45 4,7 C 4,5 C 83 % 1020,8 hPa 0,0 mm 0,0 km/h (0 Bft) O-SO 112 2,1 C 0,0 km/h (0 Bft)
04.11.2015 21:50 4,5 C 4,4 C 83 % 1021,0 hPa 0,0 mm 0,0 km/h (0 Bft) O-SO 112 1,9 C 0,0 km/h (0 Bft)
04.11.2015 21:55 4,4 C 4,2 C 83 % 1021,0 hPa 0,0 mm 0,0 km/h (0 Bft) S-SO 157 1,8 C 0,0 km/h (0 Bft)
04.11.2015 22:00 4,4 C 4,2 C 83 % 1021,0 hPa 0,0 mm 0,0 km/h (0 Bft) S-SO 157 1,8 C 0,0 km/h (0 Bft)
04.11.2015 22:05 4,3 C 4,1 C 83 % 1021,0 hPa 0,0 mm 0,0 km/h (0 Bft) O-SO 112 1,7 C 0,0 km/h (0 Bft)
04.11.2015 22:10 4,0 C 3,9 C 83 % 1020,9 hPa 0,0 mm 0,0 km/h (0 Bft) O-SO 112 1,4 C 0,0 km/h (0 Bft)
04.11.2015 22:15 3,8 C 3,7 C 84 % 1020,9 hPa 0,0 mm 0,0 km/h (0 Bft) O-SO 112 1,4 C 0,0 km/h (0 Bft)
04.11.2015 22:20 3,9 C 3,7 C 84 % 1020,9 hPa 0,0 mm 0,0 km/h (0 Bft) O-SO 112 1,4 C 0,0 km/h (0 Bft)
04.11.2015 22:25 3,7 C 3,6 C 84 % 1020,9 hPa 0,0 mm 0,0 km/h (0 Bft) O-SO 112 1,3 C 0,0 km/h (0 Bft)
04.11.2015 22:30 4,0 C 3,7 C 84 % 1020,9 hPa 0,0 mm 0,0 km/h (0 Bft) O-SO 112 1,5 C 0,0 km/h (0 Bft)
04.11.2015 22:35 3,8 C 3,6 C 85 % 1020,9 hPa 0,0 mm 0,0 km/h (0 Bft) O-SO 112 1,5 C 0,0 km/h (0 Bft)
04.11.2015 22:40 4,1 C 3,8 C 85 % 1020,9 hPa 0,0 mm 0,0 km/h (0 Bft) O-SO 112 1,8 C 0,0 km/h (0 Bft)
04.11.2015 22:45 3,6 C 3,4 C 86 % 1020,9 hPa 0,0 mm 0,0 km/h (0 Bft) SO 135 1,5 C 0,0 km/h (0 Bft)
04.11.2015 22:50 3,4 C 3,3 C 86 % 1020,8 hPa 0,0 mm 0,0 km/h (0 Bft) SO 135 1,3 C 0,0 km/h (0 Bft)
04.11.2015 22:55 3,3 C 3,2 C 85 % 1020,8 hPa 0,0 mm 0,0 km/h (0 Bft) O-SO 112 1,0 C 0,0 km/h (0 Bft)
04.11.2015 23:00 3,4 C 3,3 C 86 % 1020,8 hPa 0,0 mm 0,0 km/h (0 Bft) O-SO 112 1,3 C 0,0 km/h (0 Bft)
04.11.2015 23:05 3,3 C 3,1 C 86 % 1020,8 hPa 0,0 mm 0,0 km/h (0 Bft) O 90 1,2 C 0,0 km/h (0 Bft)
04.11.2015 23:10 3,2 C 3,1 C 86 % 1020,7 hPa 0,0 mm 0,0 km/h (0 Bft) O 90 1,1 C 0,0 km/h (0 Bft)
04.11.2015 23:15 3,4 C 3,2 C 86 % 1020,7 hPa 0,0 mm 0,0 km/h (0 Bft) O 90 1,3 C 0,0 km/h (0 Bft)
04.11.2015 23:20 3,6 C 3,3 C 87 % 1020,7 hPa 0,0 mm 0,0 km/h (0 Bft) SO 135 1,6 C 0,0 km/h (0 Bft)
04.11.2015 23:25 3,6 C 3,4 C 87 % 1020,7 hPa 0,0 mm 0,0 km/h (0 Bft) O-SO 112 1,6 C 0,0 km/h (0 Bft)
04.11.2015 23:30 3,7 C 3,5 C 87 % 1020,6 hPa 0,0 mm 0,0 km/h (0 Bft) O-SO 112 1,7 C 0,0 km/h (0 Bft)
04.11.2015 23:35 3,9 C 3,7 C 83 % 1020,6 hPa 0,0 mm 0,0 km/h (0 Bft) S 180 1,3 C 0,0 km/h (0 Bft)
04.11.2015 23:40 4,0 C 3,7 C 88 % 1020,6 hPa 0,0 mm 0,0 km/h (0 Bft) S-SO 157 2,2 C 0,0 km/h (0 Bft)
04.11.2015 23:45 3,2 C 3,2 C 88 % 1020,6 hPa 0,0 mm 0,0 km/h (0 Bft) W-SW 247 1,4 C 0,0 km/h (0 Bft)
04.11.2015 23:50 3,7 C 3,5 C 88 % 1020,5 hPa 0,0 mm 0,0 km/h (0 Bft) S-SW 202 1,9 C 0,0 km/h (0 Bft)
04.11.2015 23:55 3,0 C 3,0 C 88 % 1020,5 hPa 0,0 mm 0,0 km/h (0 Bft) W-SW 247 1,2 C 0,0 km/h (0 Bft)
_ Min-Zeit 23:55 23:55 04:40 23:55 - 23:55 - - 06:45 23:55
Minimum _ 3,0 C 3,0 C 46 % 1020,5 hPa - 0,0 km/h (0 Bft) - - -1,2 C 0,0 km/h (0 Bft)
_ Max-Zeit 13:00 04:25 23:55 08:45 23:55 03:55 - - 14:25 03:30
Maximum _ 15,5 C 12,8 C 88 % 1022,5 hPa 0,0 mm 11,4 km/h
SW (2 Bft)
- - 6,6 C 18,4 km/h
W-SW (3 Bft)
Durchschnitt _ 9,8 C 7,9 C 65 % 1021,4 hPa #0,0 mm 1,1 km/h (0 Bft) S - 3,4 C 1,4 km/h (1 Bft)